Simultaneous Nadir Overpasses (SNOs) Predictions

Prediction of SNOs between METOP-B and TERRA Satellite Orbit:

Table of predicted SNOs for the next 14.0 days since TLE Epoch: 9/10/2022
Index Date (METOP-B) Time (METOP-B) Lat,Lon (METOP-B) SZA (METOP-B ) Date (TERRA) Time (TERRA) Lat,Lon (TERRA) SZA (TERRA ) Distance(km) Time Diff (sec)
1 09/12/2022 03:20:53 81.14, 169.34 79.04 09/12/2022 03:21:25 81.13, 169.21 79.04 2.38 32
2 09/12/2022 04:11:32 -81.16, -22.71 100.87 09/12/2022 04:10:51 -81.15, -22.84 100.90 2.20 41
3 09/14/2022 22:55:12 81.14,-124.25 80.14 09/14/2022 22:55:33 81.13,-124.34 80.14 1.46 21
4 09/14/2022 23:45:51 -81.16, 43.72 99.77 09/14/2022 23:44:59 -81.16, 43.64 99.80 1.37 52
5 09/17/2022 18:29:32 81.13, -57.89 81.24 09/17/2022 18:29:42 81.13, -57.98 81.23 1.57 10
6 09/17/2022 19:20:11 -81.16, 110.11 98.67 09/17/2022 19:19:08 -81.15, 110.02 98.71 1.56 63
7 09/20/2022 13:13:12 -81.12,-159.15 97.71 09/20/2022 13:14:25 -81.12,-159.30 97.70 2.64 73
8 09/20/2022 14:03:51 81.14, 8.80 82.39 09/20/2022 14:03:50 81.14, 8.65 82.37 2.65 1
9 09/20/2022 14:54:19 -81.28,-178.95 96.99 09/20/2022 14:53:05 -81.41,-179.22 96.96 15.65 74
10 09/23/2022 08:47:32 -81.11, -93.21 96.66 09/23/2022 08:48:33 -81.10, -93.11 96.62 1.77 61



Historial Predications of SNOs between METOP-B and TERRA
